Time,TemperatureF,DewpointF,PressureIn,WindDirection,WindDirectionDegrees,WindSpeedMPH,WindSpeedGustMPH,Humidity,HourlyPrecipIn,Conditions,Clouds,dailyrainin,SoftwareType,DateUTC
2013-10-19 00:01:00,41.7,37.9,29.99,SE,135,0.0,0.0,86,0.00,,,0.00,WUHU21623XXSP,2013-10-19 04:01:00,
2013-10-19 00:06:00,41.5,37.7,29.98,SE,135,0.0,0.0,86,0.00,,,0.00,WUHU21623XXSP,2013-10-19 04:06:00,
2013-10-19 00:11:00,41.5,37.7,29.98,SE,135,0.0,0.0,86,0.00,,,0.00,WUHU21623XXSP,2013-10-19 04:11:00,
2013-10-19 00:16:00,41.5,37.7,29.98,SE,135,0.0,0.0,86,0.00,,,0.00,WUHU21623XXSP,2013-10-19 04:16:00,
2013-10-19 00:21:00,41.5,37.7,29.98,SE,135,0.0,0.0,86,0.00,,,0.00,WUHU21623XXSP,2013-10-19 04:21:00,
2013-10-19 00:26:00,41.4,37.6,29.98,SSE,157,0.0,0.0,86,0.00,,,0.00,WUHU21623XXSP,2013-10-19 04:26:00,
2013-10-19 00:31:00,41.4,37.6,29.98,SSE,157,0.0,0.0,86,0.00,,,0.00,WUHU21623XXSP,2013-10-19 04:31:00,
2013-10-19 00:36:00,41.4,37.6,29.98,SSE,157,0.0,0.0,86,0.00,,,0.00,WUHU21623XXSP,2013-10-19 04:36:00,
2013-10-19 00:41:00,41.2,37.7,29.98,SSE,157,0.0,0.0,87,0.00,,,0.00,WUHU21623XXSP,2013-10-19 04:41:00,
2013-10-19 00:46:00,41.0,37.5,29.98,SSE,157,0.0,0.0,87,0.00,,,0.00,WUHU21623XXSP,2013-10-19 04:46:00,
2013-10-19 00:51:00,40.8,37.3,29.98,SSE,157,0.0,0.0,87,0.00,,,0.00,WUHU21623XXSP,2013-10-19 04:51:00,
2013-10-19 00:56:00,40.8,37.3,29.98,SSE,157,0.0,0.0,87,0.00,,,0.00,WUHU21623XXSP,2013-10-19 04:56:00,
2013-10-19 01:01:00,40.8,37.3,29.97,SSE,157,0.0,0.0,87,0.00,,,0.00,WUHU21623XXSP,2013-10-19 05:01:00,
2013-10-19 01:06:00,40.8,37.3,29.97,SSE,157,0.0,0.0,87,0.00,,,0.00,WUHU21623XXSP,2013-10-19 05:06:00,
2013-10-19 01:11:00,40.8,37.3,29.97,SSE,157,0.0,0.0,87,0.00,,,0.00,WUHU21623XXSP,2013-10-19 05:11:00,
2013-10-19 01:16:00,40.8,37.3,29.97,SSE,157,0.0,0.0,87,0.00,,,0.00,WUHU21623XXSP,2013-10-19 05:16:00,
2013-10-19 01:21:00,40.8,37.3,29.97,SSE,157,0.0,0.0,87,0.00,,,0.00,WUHU21623XXSP,2013-10-19 05:21:00,
2013-10-19 01:26:00,40.8,37.3,29.97,South,180,0.0,0.0,87,0.00,,,0.00,WUHU21623XXSP,2013-10-19 05:26:00,
2013-10-19 01:31:00,40.8,37.3,29.97,South,180,0.0,0.0,87,0.00,,,0.00,WUHU21623XXSP,2013-10-19 05:31:00,
2013-10-19 13:01:00,50.5,44.3,29.81,SE,135,0.0,0.0,79,0.00,,,0.00,WUHU21623XXSP,2013-10-19 17:01:00,
2013-10-19 13:41:00,51.1,45.2,29.79,SSW,202,0.0,0.0,80,0.00,,,0.00,WUHU21623XXSP,2013-10-19 17:41:00,
2013-10-19 13:46:00,51.3,45.4,29.78,SW,225,0.0,0.0,80,0.00,,,0.00,WUHU21623XXSP,2013-10-19 17:46:00,
2013-10-19 13:51:00,51.3,45.4,29.79,WSW,247,0.0,0.0,80,0.00,,,0.00,WUHU21623XXSP,2013-10-19 17:51:00,
2013-10-19 13:56:00,51.4,45.5,29.79,ESE,112,0.0,0.0,80,0.00,,,0.00,WUHU21623XXSP,2013-10-19 17:56:00,
2013-10-19 14:01:00,51.4,45.5,29.78,WSW,247,0.0,0.0,80,0.00,,,0.00,WUHU21623XXSP,2013-10-19 18:01:00,
2013-10-19 14:06:00,51.4,45.5,29.79,WSW,247,0.0,0.0,80,0.00,,,0.00,WUHU21623XXSP,2013-10-19 18:06:00,
2013-10-19 14:11:00,51.4,45.5,29.78,WSW,247,0.0,3.4,80,0.00,,,0.00,WUHU21623XXSP,2013-10-19 18:11:00,
2013-10-19 14:16:00,51.4,45.5,29.78,WSW,247,0.0,0.0,80,0.00,,,0.00,WUHU21623XXSP,2013-10-19 18:16:00,
2013-10-19 14:21:00,51.6,45.7,29.79,WSW,247,0.0,0.0,80,0.00,,,0.00,WUHU21623XXSP,2013-10-19 18:21:00,
2013-10-19 14:26:00,51.6,45.7,29.79,West,270,0.0,0.0,80,0.00,,,0.00,WUHU21623XXSP,2013-10-19 18:26:00,
2013-10-19 14:31:00,51.6,45.7,29.79,SW,225,3.1,3.1,80,0.00,,,0.00,WUHU21623XXSP,2013-10-19 18:31:00,
2013-10-19 14:36:00,52.0,46.1,29.79,SW,225,0.0,0.0,80,0.00,,,0.00,WUHU21623XXSP,2013-10-19 18:36:00,
2013-10-19 14:41:00,52.2,46.3,29.79,WSW,247,0.0,0.0,80,0.00,,,0.00,WUHU21623XXSP,2013-10-19 18:41:00,
2013-10-19 14:46:00,52.2,46.0,29.78,SW,225,0.0,0.0,79,0.00,,,0.00,WUHU21623XXSP,2013-10-19 18:46:00,
2013-10-19 14:51:00,52.2,46.3,29.78,SW,225,0.0,0.0,80,0.00,,,0.00,WUHU21623XXSP,2013-10-19 18:51:00,
2013-10-19 14:56:00,52.2,46.5,29.78,SW,225,0.0,0.0,81,0.00,,,0.00,WUHU21623XXSP,2013-10-19 18:56:00,
2013-10-19 15:01:00,51.6,46.2,29.78,SW,225,0.0,4.9,82,0.00,,,0.00,WUHU21623XXSP,2013-10-19 19:01:00,
2013-10-19 15:06:00,51.1,45.9,29.78,WSW,247,0.0,0.0,82,0.00,,,0.00,WUHU21623XXSP,2013-10-19 19:06:00,
2013-10-19 15:11:00,50.5,45.6,29.78,WSW,247,0.0,0.0,83,0.00,,,0.00,WUHU21623XXSP,2013-10-19 19:11:00,
2013-10-19 15:16:00,49.8,45.2,29.77,SW,225,0.2,0.2,84,0.00,,,0.00,WUHU21623XXSP,2013-10-19 19:16:00,
2013-10-19 15:21:00,49.6,45.0,29.77,SW,225,0.0,0.2,84,0.00,,,0.00,WUHU21623XXSP,2013-10-19 19:21:00,
2013-10-19 15:26:00,49.3,44.9,29.78,SW,225,1.8,1.8,85,0.00,,,0.00,WUHU21623XXSP,2013-10-19 19:26:00,
2013-10-19 15:31:00,49.3,45.2,29.78,SW,225,0.0,0.0,86,0.00,,,0.00,WUHU21623XXSP,2013-10-19 19:31:00,
2013-10-19 15:36:00,49.1,45.0,29.78,SW,225,0.0,0.0,86,0.00,,,0.00,WUHU21623XXSP,2013-10-19 19:36:00,
2013-10-19 15:41:00,49.1,45.0,29.78,SW,225,0.0,0.0,86,0.00,,,0.00,WUHU21623XXSP,2013-10-19 19:41:00,
2013-10-19 15:46:00,49.1,45.0,29.77,WSW,247,0.0,0.0,86,0.00,,,0.00,WUHU21623XXSP,2013-10-19 19:46:00,
2013-10-19 15:51:00,49.3,45.2,29.77,WSW,247,0.0,0.0,86,0.00,,,0.00,WUHU21623XXSP,2013-10-19 19:51:00,
2013-10-19 15:56:00,49.3,45.2,29.77,SW,225,0.0,0.0,86,0.00,,,0.00,WUHU21623XXSP,2013-10-19 19:56:00,
2013-10-19 16:01:00,49.3,45.2,29.77,WSW,247,0.0,0.0,86,0.00,,,0.00,WUHU21623XXSP,2013-10-19 20:01:00,
2013-10-19 16:06:00,49.5,45.4,29.77,WSW,247,0.0,1.1,86,0.00,,,0.00,WUHU21623XXSP,2013-10-19 20:06:00,
2013-10-19 16:11:00,49.6,45.4,29.77,South,180,2.5,4.7,86,0.00,,,0.00,WUHU21623XXSP,2013-10-19 20:11:00,
2013-10-19 16:16:00,49.6,45.4,29.77,WSW,247,0.7,0.7,86,0.00,,,0.00,WUHU21623XXSP,2013-10-19 20:16:00,
2013-10-19 16:21:00,49.3,45.2,29.77,SSW,202,4.9,4.9,86,0.00,,,0.00,WUHU21623XXSP,2013-10-19 20:21:00,
2013-10-19 16:26:00,49.3,44.9,29.77,SW,225,3.0,4.9,85,0.00,,,0.00,WUHU21623XXSP,2013-10-19 20:26:00,
2013-10-19 16:31:00,49.3,44.7,29.77,WSW,247,3.8,5.6,84,0.00,,,0.00,WUHU21623XXSP,2013-10-19 20:31:00,
2013-10-19 16:36:00,49.3,44.4,29.77,WSW,237,3.7,6.7,83,0.00,,,0.00,WUHU21623XXSP,2013-10-19 20:36:00,
2013-10-19 16:41:00,49.3,44.4,29.76,SW,225,4.0,7.6,83,0.00,,,0.00,WUHU21623XXSP,2013-10-19 20:41:00,
2013-10-19 16:46:00,49.3,44.4,29.77,WSW,247,0.0,4.3,83,0.00,,,0.00,WUHU21623XXSP,2013-10-19 20:46:00,
2013-10-19 16:51:00,49.5,44.6,29.76,SW,225,0.0,4.7,83,0.00,,,0.00,WUHU21623XXSP,2013-10-19 20:51:00,
2013-10-19 16:56:00,49.6,44.7,29.76,SW,225,1.8,4.7,83,0.00,,,0.00,WUHU21623XXSP,2013-10-19 20:56:00,
2013-10-19 17:01:00,49.5,44.6,29.76,SW,233,3.3,5.6,83,0.00,,,0.00,WUHU21623XXSP,2013-10-19 21:01:00,
2013-10-19 17:06:00,49.3,44.4,29.77,SW,225,1.1,5.4,83,0.00,,,0.00,WUHU21623XXSP,2013-10-19 21:06:00,
2013-10-19 17:11:00,49.3,44.2,29.77,SSW,210,3.1,6.3,82,0.00,,,0.00,WUHU21623XXSP,2013-10-19 21:11:00,
2013-10-19 17:16:00,49.3,44.4,29.77,SW,222,4.3,6.3,83,0.00,,,0.00,WUHU21623XXSP,2013-10-19 21:16:00,
2013-10-19 17:21:00,48.9,44.0,29.77,West,270,2.2,4.7,83,0.00,,,0.00,WUHU21623XXSP,2013-10-19 21:21:00,
2013-10-19 17:26:00,48.7,44.1,29.77,SW,235,5.3,8.5,84,0.00,,,0.00,WUHU21623XXSP,2013-10-19 21:26:00,
2013-10-19 17:31:00,48.0,43.6,29.77,WSW,247,5.6,8.3,85,0.00,,,0.00,WUHU21623XXSP,2013-10-19 21:31:00,
2013-10-19 17:36:00,47.8,43.9,29.78,WSW,247,0.0,6.0,86,0.00,,,0.00,WUHU21623XXSP,2013-10-19 21:36:00,
2013-10-19 17:41:00,47.5,43.9,29.78,SSW,202,4.0,8.5,87,0.00,,,0.00,WUHU21623XXSP,2013-10-19 21:41:00,
2013-10-19 17:46:00,47.1,43.5,29.77,SW,236,4.2,8.5,87,0.00,,,0.00,WUHU21623XXSP,2013-10-19 21:46:00,
2013-10-19 17:51:00,46.9,43.5,29.78,WSW,257,3.2,5.4,88,0.00,,,0.00,WUHU21623XXSP,2013-10-19 21:51:00,
2013-10-19 17:56:00,46.9,43.7,29.77,WSW,250,3.5,5.4,89,0.00,,,0.00,WUHU21623XXSP,2013-10-19 21:56:00,
2013-10-19 18:01:00,46.6,43.4,29.77,SW,225,3.8,7.4,89,0.00,,,0.00,WUHU21623XXSP,2013-10-19 22:01:00,
2013-10-19 18:05:00,46.6,43.7,29.77,West,270,2.2,6.5,90,0.00,,,0.00,WUHU21623XXSP,2013-10-19 22:05:00,
2013-10-19 18:11:00,46.6,43.7,29.78,SW,225,6.5,8.3,90,0.00,,,0.00,WUHU21623XXSP,2013-10-19 22:11:00,
2013-10-19 18:15:00,46.6,43.7,29.78,SW,225,4.3,7.2,90,0.00,,,0.00,WUHU21623XXSP,2013-10-19 22:15:00,
2013-10-19 18:20:00,46.6,43.7,29.78,SW,225,6.7,9.8,90,0.00,,,0.00,WUHU21623XXSP,2013-10-19 22:20:00,
2013-10-19 18:25:00,46.4,43.5,29.77,South,187,2.4,9.8,90,0.00,,,0.00,WUHU21623XXSP,2013-10-19 22:25:00,
2013-10-19 18:30:00,46.2,43.3,29.77,SW,223,5.5,9.2,90,0.00,,,0.00,WUHU21623XXSP,2013-10-19 22:30:00,
2013-10-19 18:35:00,46.2,43.3,29.76,SSW,201,4.8,9.2,90,0.00,,,0.00,WUHU21623XXSP,2013-10-19 22:35:00,
2013-10-19 18:40:00,46.0,43.1,29.76,West,270,0.0,13.0,90,0.00,,,0.00,WUHU21623XXSP,2013-10-19 22:40:00,
2013-10-19 18:45:00,45.7,43.0,29.76,SW,219,5.3,7.4,90,0.00,,,0.00,WUHU21623XXSP,2013-10-19 22:45:00,
2013-10-19 18:50:00,45.7,42.8,29.77,SW,217,7.2,10.1,90,0.00,,,0.00,WUHU21623XXSP,2013-10-19 22:50:00,
2013-10-19 18:55:00,45.7,42.8,29.77,WSW,242,4.3,10.3,90,0.00,,,0.00,WUHU21623XXSP,2013-10-19 22:55:00,
2013-10-19 19:00:00,45.7,42.8,29.77,WSW,247,7.8,15.0,90,0.00,,,0.00,WUHU21623XXSP,2013-10-19 23:00:00,
2013-10-19 19:05:00,45.9,43.0,29.77,WSW,247,9.2,15.0,90,0.00,,,0.00,WUHU21623XXSP,2013-10-19 23:05:00,
2013-10-19 19:10:00,46.0,43.1,29.77,SW,225,7.8,11.6,90,0.00,,,0.00,WUHU21623XXSP,2013-10-19 23:10:00,
2013-10-19 19:15:00,46.0,43.1,29.78,WSW,247,7.2,9.2,90,0.00,,,0.00,WUHU21623XXSP,2013-10-19 23:15:00,
2013-10-19 19:20:00,46.2,43.3,29.78,WSW,247,7.3,18.6,90,0.00,,,0.00,WUHU21623XXSP,2013-10-19 23:20:00,
2013-10-19 19:25:00,46.2,43.3,29.77,SW,225,8.1,16.8,90,0.00,,,0.00,WUHU21623XXSP,2013-10-19 23:25:00,
2013-10-19 19:30:00,46.2,43.3,29.78,SW,230,8.6,16.8,90,0.00,,,0.00,WUHU21623XXSP,2013-10-19 23:30:00,
2013-10-19 19:35:00,46.0,43.1,29.77,WSW,247,11.0,16.1,90,0.00,,,0.00,WUHU21623XXSP,2013-10-19 23:35:00,
2013-10-19 19:40:00,45.9,43.2,29.78,South,180,9.2,11.4,90,0.00,,,0.00,WUHU21623XXSP,2013-10-19 23:40:00,
2013-10-19 19:45:00,45.7,43.0,29.78,SW,225,14.1,16.3,90,0.00,,,0.00,WUHU21623XXSP,2013-10-19 23:45:00,
2013-10-19 19:50:00,45.5,43.0,29.78,WSW,247,5.4,16.3,91,0.00,,,0.00,WUHU21623XXSP,2013-10-19 23:50:00,
2013-10-19 19:55:00,45.5,43.0,29.78,WSW,247,4.5,8.7,91,0.00,,,0.00,WUHU21623XXSP,2013-10-19 23:55:00,
2013-10-19 20:00:00,45.3,42.8,29.79,SW,216,3.7,9.2,91,0.00,,,0.00,WUHU21623XXSP,2013-10-20 00:00:00,
2013-10-19 20:05:00,45.3,43.1,29.79,West,270,5.8,9.2,92,0.00,,,0.00,WUHU21623XXSP,2013-10-20 00:05:00,
2013-10-19 20:10:00,45.1,42.9,29.80,WSW,251,6.6,12.8,92,0.00,,,0.00,WUHU21623XXSP,2013-10-20 00:10:00,
2013-10-19 20:15:00,45.0,42.8,29.81,WSW,247,6.0,15.0,92,0.00,,,0.00,WUHU21623XXSP,2013-10-20 00:15:00,
2013-10-19 20:20:00,44.4,42.2,29.81,WSW,251,4.1,9.4,92,0.00,,,0.00,WUHU21623XXSP,2013-10-20 00:20:00,
2013-10-19 20:25:00,44.2,42.0,29.81,WSW,244,7.5,11.0,92,0.00,,,0.00,WUHU21623XXSP,2013-10-20 00:25:00,
2013-10-19 20:30:00,43.7,41.5,29.81,WSW,247,6.8,15.0,92,0.00,,,0.00,WUHU21623XXSP,2013-10-20 00:30:00,
2013-10-19 20:35:00,43.5,41.3,29.82,SSW,210,14.2,21.9,92,0.00,,,0.00,WUHU21623XXSP,2013-10-20 00:35:00,
2013-10-19 20:40:00,43.2,41.0,29.82,WSW,243,5.6,21.9,92,0.00,,,0.00,WUHU21623XXSP,2013-10-20 00:40:00,
2013-10-19 20:45:00,43.0,40.8,29.83,WSW,247,6.9,16.6,92,0.00,,,0.00,WUHU21623XXSP,2013-10-20 00:45:00,
2013-10-19 20:50:00,42.6,40.4,29.83,WSW,247,8.5,14.1,92,0.00,,,0.00,WUHU21623XXSP,2013-10-20 00:50:00,
2013-10-19 20:55:00,42.1,39.9,29.84,WSW,252,5.8,11.9,92,0.00,,,0.00,WUHU21623XXSP,2013-10-20 00:55:00,
2013-10-19 21:00:00,41.9,39.7,29.84,WSW,247,12.3,12.3,92,0.00,,,0.00,WUHU21623XXSP,2013-10-20 01:00:00,
2013-10-19 21:05:00,41.5,39.3,29.85,WSW,247,15.7,15.7,92,0.00,,,0.00,WUHU21623XXSP,2013-10-20 01:05:00,
2013-10-19 21:10:00,41.4,39.2,29.85,SW,225,8.5,15.7,92,0.00,,,0.00,WUHU21623XXSP,2013-10-20 01:10:00,
2013-10-19 21:15:00,41.2,39.0,29.85,SW,225,5.4,14.8,92,0.00,,,0.00,WUHU21623XXSP,2013-10-20 01:15:00,
2013-10-19 21:20:00,41.0,38.8,29.85,SW,216,8.9,17.4,92,0.00,,,0.00,WUHU21623XXSP,2013-10-20 01:20:00,
2013-10-19 21:25:00,40.8,38.6,29.85,WSW,237,7.5,17.4,92,0.00,,,0.00,WUHU21623XXSP,2013-10-20 01:25:00,
2013-10-19 21:30:00,40.8,38.4,29.85,SW,230,7.7,16.3,91,0.00,,,0.00,WUHU21623XXSP,2013-10-20 01:30:00,
2013-10-19 21:35:00,40.6,38.2,29.86,WSW,239,4.6,16.3,91,0.00,,,0.00,WUHU21623XXSP,2013-10-20 01:35:00,
2013-10-19 21:40:00,40.5,38.1,29.86,SW,225,8.1,19.0,91,0.00,,,0.00,WUHU21623XXSP,2013-10-20 01:40:00,
2013-10-19 21:45:00,40.3,37.9,29.86,SSW,202,7.8,19.0,91,0.00,,,0.00,WUHU21623XXSP,2013-10-20 01:45:00,
2013-10-19 21:50:00,40.3,37.9,29.86,SW,225,4.5,13.4,91,0.00,,,0.00,WUHU21623XXSP,2013-10-20 01:50:00,
2013-10-19 21:55:00,40.1,37.7,29.86,WSW,247,8.5,10.5,91,0.00,,,0.00,WUHU21623XXSP,2013-10-20 01:55:00,
2013-10-19 22:00:00,40.1,37.7,29.86,WSW,247,7.6,11.0,91,0.00,,,0.00,WUHU21623XXSP,2013-10-20 02:00:00,
2013-10-19 22:05:00,39.9,37.5,29.87,WNW,292,5.1,11.0,91,0.00,,,0.00,WUHU21623XXSP,2013-10-20 02:05:00,
2013-10-19 22:10:00,39.9,37.5,29.87,WSW,247,4.9,7.2,91,0.00,,,0.00,WUHU21623XXSP,2013-10-20 02:10:00,
2013-10-19 22:15:00,39.7,37.3,29.87,WSW,247,5.4,7.2,91,0.00,,,0.00,WUHU21623XXSP,2013-10-20 02:15:00,
2013-10-19 22:20:00,39.7,37.3,29.87,SSW,202,5.1,8.5,91,0.00,,,0.00,WUHU21623XXSP,2013-10-20 02:20:00,
2013-10-19 22:25:00,39.7,37.3,29.87,WSW,247,4.5,8.5,91,0.00,,,0.00,WUHU21623XXSP,2013-10-20 02:25:00,
2013-10-19 22:30:00,39.6,37.2,29.87,WSW,247,8.3,8.3,91,0.00,,,0.00,WUHU21623XXSP,2013-10-20 02:30:00,
2013-10-19 22:35:00,39.6,37.0,29.87,WNW,292,12.8,12.8,90,0.00,,,0.00,WUHU21623XXSP,2013-10-20 02:35:00,
2013-10-19 22:40:00,39.4,36.8,29.87,SW,225,9.2,12.8,90,0.00,,,0.00,WUHU21623XXSP,2013-10-20 02:40:00,
2013-10-19 22:45:00,39.4,36.8,29.88,SSW,213,5.3,8.3,90,0.00,,,0.00,WUHU21623XXSP,2013-10-20 02:45:00,
2013-10-19 22:50:00,39.4,36.8,29.88,SSW,209,4.7,7.2,90,0.00,,,0.00,WUHU21623XXSP,2013-10-20 02:50:00,
2013-10-19 22:55:00,39.4,36.8,29.88,WSW,247,8.7,9.2,90,0.00,,,0.00,WUHU21623XXSP,2013-10-20 02:55:00,
2013-10-19 23:00:00,39.0,36.4,29.88,WSW,247,4.9,8.7,90,0.00,,,0.00,WUHU21623XXSP,2013-10-20 03:00:00,
2013-10-19 23:05:00,39.0,36.4,29.88,West,263,4.9,7.6,90,0.00,,,0.00,WUHU21623XXSP,2013-10-20 03:05:00,
2013-10-19 23:10:00,39.0,36.4,29.88,WSW,255,5.6,7.2,90,0.00,,,0.00,WUHU21623XXSP,2013-10-20 03:10:00,
2013-10-19 23:15:00,38.8,36.0,29.88,WSW,237,4.4,8.5,90,0.00,,,0.00,WUHU21623XXSP,2013-10-20 03:15:00,
2013-10-19 23:20:00,38.7,35.9,29.88,West,270,4.7,6.9,90,0.00,,,0.00,WUHU21623XXSP,2013-10-20 03:20:00,
2013-10-19 23:25:00,38.5,35.9,29.89,SW,235,2.0,6.9,90,0.00,,,0.00,WUHU21623XXSP,2013-10-20 03:25:00,
2013-10-19 23:30:00,38.7,36.1,29.89,WSW,247,12.3,12.3,90,0.00,,,0.00,WUHU21623XXSP,2013-10-20 03:30:00,
2013-10-19 23:35:00,38.8,36.2,29.89,WSW,254,6.6,12.3,90,0.00,,,0.00,WUHU21623XXSP,2013-10-20 03:35:00,
2013-10-19 23:40:00,38.8,36.2,29.89,SW,225,6.9,8.5,90,0.00,,,0.00,WUHU21623XXSP,2013-10-20 03:40:00,
2013-10-19 23:45:00,38.8,36.2,29.89,SW,218,4.2,6.9,90,0.00,,,0.00,WUHU21623XXSP,2013-10-20 03:45:00,
2013-10-19 23:50:00,38.8,36.2,29.89,WNW,287,5.8,10.1,90,0.00,,,0.00,WUHU21623XXSP,2013-10-20 03:50:00,
2013-10-19 23:55:00,38.8,36.2,29.89,West,270,4.7,10.1,90,0.00,,,0.00,WUHU21623XXSP,2013-10-20 03:55:00,